Погода в Кедвавоме

Россия / Республика Коми     64°13′32″N   53°33′55″E
темп.,
°C
ветер,
м/с
пор.,
м/с
влажн.,
%
обл.,
%
осадки,
мм/ч
давл.,
гПа
погр.,
м
21 июня, пн
пн2100:00+7ююв276536 0.0 1022170
03:00+9ююв3964100 0.0 1022319
06:00+7ююв41094100 4.0 1020345
09:00+8юв51294100 6.7 1018494
12:00+9юв4990100 1.4 1018661
15:00+9юв379097 1.4 1018358
18:00+10в248997 0.0 1017207
21:00+9в139273 0.0 1018145
22 июня, вт
вт2200:00+9св1294100 0.0 101880
03:00+9ссв1293100 0.0 1019126
06:00+11всв128290 0.0 1020323
09:00+17всв2161100 0.0 1020744
12:00+18всв3257100 0.0 1020977
15:00+13в367995 0.1 1020225
18:00+16вюв3661100 0.0 1019367
21:00+13юв387893 0.1 1019260
23 июня, ср
ср2300:00+13ююв287781 0.0 1019219
03:00+13ююв287596 0.0 1019257
06:00+17ю346767 0.0 1019439
09:00+24ююз235774 0.0 1017895
12:00+28зюз134662 0.0 10161783
15:00+30зсз253965 0.0 10152446
18:00+26ююв245852 0.1 101490
21:00+22юв227535 0.1 101419
24 июня, чт
чт2400:00+20з117987 0.0 101416
03:00+20зюз118195 0.1 101220
06:00+23зсз237486 0.7 1012272
09:00+27зсз225538 0.8 1011885
12:00+31з35396 0.0 10102076
15:00+29з3645100 0.1 1009253
18:00+24зсз126936 0.2 100857
21:00+23з227399 0.2 100819
25 июня, пт
пт2500:00+19зсз2493100 1.7 100875
03:00+19ссз3796100 2.6 1008317
06:00+19ссз468257 0.1 1009598
09:00+16сз5783100 0.3 1010537
12:00+14ссз488337 0.8 1012715
15:00+18с685169 0.8 10121389
18:00+17с585144 0.0 10131490
21:00+13с49550 0.0 1015831